Powrót do katalogu

STARLINK-37653

AktywnyŁącznośćSSO
NORAD 69140·PAYLOAD·🇺🇸 United States

Wystrzelony May 20, 2026 z Vandenberg Space Force Base

Loading…

Następne Przeloty (najbliższe 24 godziny)

TLE

ŚwieżeSource: CelesTrak SupGP

Epoka: Sep 14, 2026, 21:34 UTC

1 69140C 26110S   26257.89909722  .00078705  00000+0  24425-2 0  2570
2 69140  97.2848  93.0650 0001590  88.6402 133.3824 15.33407419    18

Śledź STARLINK-37653 w czasie rzeczywistym z AllMySat

Download on the App Store